Tracking 25707 objects as of 29-Jun-2022
HD Live streaming from Space Station
objects crossing your sky now

STARLINK-2350

Track STARLINK-2350 now!
10-day predictions
STARLINK-2350 is classified as:


NORAD ID: 47890
Int'l Code: 2021-021AG
Perigee: 445.0 km
Apogee: 448.8 km
Inclination: 53.1 °
Period: 93.4 minutes
Semi major axis: 6817 km
RCS: Unknown
Launch date: March 14, 2021
Source: United States (US)
Launch site: AIR FORCE EASTERN TEST RANGE (AFETR)
aabbcc
Your satellite tracking list
Your tracking list is empty




NASA's NSSDC Master Catalog

Two Line Element Set (TLE):
1 47890U 21021AG  22180.41315043 -.00004511  00000-0 -94251-4 0  9996
2 47890  53.0523 157.6433 0002753  27.6157 332.4993 15.42147053 72602
Source of the keplerian elements: AFSPC